Time,TemperatureF,DewpointF,PressureIn,WindDirection,WindDirectionDegrees,WindSpeedMPH,WindSpeedGustMPH,Humidity,HourlyPrecipIn,Conditions,Clouds,dailyrainin,SoftwareType,DateUTC
2013-03-24 00:00:00,50.0,45.3,29.91,ESE,112,0.0,3.0,84,0.00,,,0.00,Weather View 32 v70,2013-03-24 07:00:00,
2013-03-24 00:30:00,50.0,44.7,29.90,SE,135,0.0,4.0,82,0.00,,,0.00,Weather View 32 v70,2013-03-24 07:30:00,
2013-03-24 01:00:00,49.0,44.7,29.90,SE,135,0.0,4.0,85,0.00,,,0.00,Weather View 32 v70,2013-03-24 08:00:00,
2013-03-24 01:30:00,47.0,43.9,29.90,SSE,157,0.0,4.0,89,0.00,,,0.00,Weather View 32 v70,2013-03-24 08:30:00,
2013-03-24 02:00:00,46.0,42.9,29.90,SE,135,3.0,4.0,89,0.00,,,0.00,Weather View 32 v70,2013-03-24 09:00:00,
2013-03-24 02:30:00,47.0,44.2,29.89,ESE,112,0.0,4.0,90,0.00,,,0.00,Weather View 32 v70,2013-03-24 09:30:00,
2013-03-24 03:00:00,46.0,43.5,29.88,ESE,112,0.0,4.0,91,0.00,,,0.00,Weather View 32 v70,2013-03-24 10:00:00,
2013-03-24 03:30:00,45.0,42.2,29.86,SSE,157,0.0,1.0,90,0.00,,,0.00,Weather View 32 v70,2013-03-24 10:30:00,
2013-03-24 04:00:00,44.0,41.3,29.85,SSE,157,0.0,1.0,90,0.00,,,0.00,Weather View 32 v70,2013-03-24 11:00:00,
2013-03-24 04:30:00,46.0,42.6,29.86,SSE,157,0.0,0.0,88,0.00,,,0.00,Weather View 32 v70,2013-03-24 11:30:00,
2013-03-24 05:00:00,44.0,41.3,29.87,SSE,157,0.0,0.0,90,0.00,,,0.00,Weather View 32 v70,2013-03-24 12:00:00,
2013-03-24 05:30:00,44.0,41.0,29.87,SSE,157,0.0,0.0,89,0.00,,,0.00,Weather View 32 v70,2013-03-24 12:30:00,
2013-03-24 06:00:00,41.0,35.9,29.87,WSW,247,0.0,0.0,82,0.00,,,0.00,Weather View 32 v70,2013-03-24 13:00:00,
2013-03-24 06:30:00,41.0,27.8,29.87,WSW,247,0.0,0.0,59,0.00,,,0.00,Weather View 32 v70,2013-03-24 13:30:00,
2013-03-24 07:00:00,41.0,16.7,29.88,WSW,247,0.0,0.0,37,0.00,,,0.00,Weather View 32 v70,2013-03-24 14:00:00,
2013-03-24 07:30:00,43.0,-51.5,29.89,WSW,247,0.0,0.0,1,0.00,,,0.00,Weather View 32 v70,2013-03-24 14:30:00,
2013-03-24 08:00:00,46.0,-49.6,29.91,WSW,247,0.0,0.0,1,0.00,,,0.00,Weather View 32 v70,2013-03-24 15:00:00,
2013-03-24 08:30:00,52.0,47.3,29.95,SSE,157,1.0,5.0,84,0.00,,,0.00,Weather View 32 v70,2013-03-24 15:30:00,
2013-03-24 09:00:00,55.0,46.5,29.97,South,180,1.0,6.0,73,0.00,,,0.00,Weather View 32 v70,2013-03-24 16:00:00,
2013-03-24 09:30:00,58.0,44.6,29.99,SE,135,2.0,7.0,61,0.00,,,0.00,Weather View 32 v70,2013-03-24 16:30:00,
2013-03-24 10:00:00,61.0,43.2,30.00,SSE,157,3.0,8.0,52,0.00,,,0.00,Weather View 32 v70,2013-03-24 17:00:00,
2013-03-24 10:30:00,63.0,42.4,30.01,SE,135,8.0,10.0,47,0.00,,,0.00,Weather View 32 v70,2013-03-24 17:30:00,
2013-03-24 11:00:00,65.0,42.5,30.01,South,180,7.0,10.0,44,0.00,,,0.00,Weather View 32 v70,2013-03-24 18:00:00,
2013-03-24 11:30:00,67.0,44.3,30.01,South,180,7.0,11.0,44,0.00,,,0.00,Weather View 32 v70,2013-03-24 18:30:00,
2013-03-24 12:00:00,68.0,45.8,30.01,WSW,247,0.0,11.0,45,0.00,,,0.00,Weather View 32 v70,2013-03-24 19:00:00,
2013-03-24 12:30:00,71.0,46.0,30.00,West,270,5.0,10.0,41,0.00,,,0.00,Weather View 32 v70,2013-03-24 19:30:00,
2013-03-24 13:00:00,70.0,43.2,29.99,WNW,292,7.0,9.0,38,0.00,,,0.00,Weather View 32 v70,2013-03-24 20:00:00,
2013-03-24 13:30:00,73.0,42.9,29.99,North,360,0.0,9.0,34,0.00,,,0.00,Weather View 32 v70,2013-03-24 20:30:00,
2013-03-24 14:00:00,73.0,42.9,29.98,SSW,202,0.0,9.0,34,0.00,,,0.00,Weather View 32 v70,2013-03-24 21:00:00,
2013-03-24 14:30:00,74.0,43.0,29.96,SW,225,0.0,10.0,33,0.00,,,0.00,Weather View 32 v70,2013-03-24 21:30:00,
2013-03-24 15:00:00,74.0,42.2,29.95,SSW,202,0.0,10.0,32,0.00,,,0.00,Weather View 32 v70,2013-03-24 22:00:00,
2013-03-24 15:30:00,75.0,42.2,29.95,West,270,3.0,9.0,31,0.00,,,0.00,Weather View 32 v70,2013-03-24 22:30:00,
2013-03-24 16:00:00,74.0,42.2,29.94,WSW,247,1.0,13.0,32,0.00,,,0.00,Weather View 32 v70,2013-03-24 23:00:00,
2013-03-24 16:30:00,73.0,42.1,29.93,West,270,9.0,13.0,33,0.00,,,0.00,Weather View 32 v70,2013-03-24 23:30:00,
2013-03-24 17:00:00,73.0,41.3,29.92,NW,315,5.0,13.0,32,0.00,,,0.00,Weather View 32 v70,2013-03-25 00:00:00,
2013-03-24 17:30:00,74.0,42.2,29.92,NNW,337,4.0,13.0,32,0.00,,,0.00,Weather View 32 v70,2013-03-25 00:30:00,
2013-03-24 18:00:00,73.0,38.8,29.91,NNW,337,2.0,10.0,29,0.00,,,0.00,Weather View 32 v70,2013-03-25 01:00:00,
2013-03-24 18:30:00,72.0,37.9,29.90,NW,315,0.0,10.0,29,0.00,,,0.00,Weather View 32 v70,2013-03-25 01:30:00,
2013-03-24 19:00:00,69.0,37.0,29.88,WNW,292,0.0,7.0,31,0.00,,,0.00,Weather View 32 v70,2013-03-25 02:00:00,
2013-03-24 19:30:00,66.0,36.8,29.87,WSW,247,0.0,1.0,34,0.00,,,0.00,Weather View 32 v70,2013-03-25 02:30:00,
2013-03-24 20:00:00,63.0,36.9,29.85,WSW,247,0.0,1.0,38,0.00,,,0.00,Weather View 32 v70,2013-03-25 03:00:00,
2013-03-24 20:30:00,62.0,40.4,29.85,WSW,247,0.0,0.0,45,0.00,,,0.00,Weather View 32 v70,2013-03-25 03:30:00,
2013-03-24 21:00:00,59.0,37.1,29.85,WSW,247,0.0,0.0,44,0.00,,,0.00,Weather View 32 v70,2013-03-25 04:00:00,
2013-03-24 21:30:00,57.0,39.0,29.84,South,180,0.0,0.0,51,0.00,,,0.00,Weather View 32 v70,2013-03-25 04:30:00,
2013-03-24 21:35:00,57.0,39.0,29.84,South,180,0.0,0.0,51,0.00,,,0.00,Weather View 32 v70,2013-03-25 04:35:00,
2013-03-24 22:00:00,57.0,44.5,29.84,ENE,67,0.0,5.0,63,0.00,,,0.00,Weather View 32 v70,2013-03-25 05:00:00,
2013-03-24 22:30:00,55.0,45.8,29.85,ENE,67,0.0,5.0,71,0.00,,,0.00,Weather View 32 v70,2013-03-25 05:30:00,
2013-03-24 22:35:00,55.0,45.8,29.85,ENE,67,0.0,5.0,71,0.00,,,0.00,Weather View 32 v70,2013-03-25 05:35:00,
2013-03-24 23:00:00,54.0,46.6,29.85,ENE,67,0.0,0.0,76,0.00,,,0.00,Weather View 32 v70,2013-03-25 06:00:00,
2013-03-24 23:30:00,54.0,47.3,29.85,ENE,67,0.0,0.0,78,0.00,,,0.00,Weather View 32 v70,2013-03-25 06:30:00,
2013-03-24 23:36:00,54.0,47.3,29.85,ENE,67,0.0,0.0,78,0.00,,,0.00,Weather View 32 v70,2013-03-25 06:36:00,